HFA808 LCLK-LLHA

Flight info

Callsign HFA808
Flight time N/A
Altitude 19000
Route EMEDA B17 MERVA
Aircraft AT76/M-SDFGIRY/S

Departure

Time N/A
Airport Larnaca International Airport (LCLK)

Arrival

Time 2026-04-25 15:20
Airport Uri Michaeli Haifa International Airport (LLHA)
Time Latitude Longitude Altitude Speed Heading
2026-04-25 14:55 34.08379 33.97144 12665 ft 286 kts 163°
2026-04-25 14:55 34.06488 33.97948 12675 ft 287 kts 163°
2026-04-25 14:55 34.04621 33.98724 12672 ft 282 kts 163°
2026-04-25 14:56 34.02771 33.99498 12675 ft 280 kts 163°
2026-04-25 14:56 34.01544 34.00014 12680 ft 278 kts 163°
2026-04-25 14:56 33.99992 34.00670 12677 ft 277 kts 163°
2026-04-25 14:56 33.98429 34.01332 12674 ft 276 kts 163°
2026-04-25 14:57 33.96619 34.02091 12671 ft 275 kts 163°
2026-04-25 14:57 33.94793 34.02848 12673 ft 278 kts 163°
2026-04-25 14:57 33.92973 34.03600 12684 ft 282 kts 163°
2026-04-25 14:57 33.91109 34.04371 12685 ft 284 kts 163°
2026-04-25 14:58 33.89234 34.05145 12675 ft 285 kts 162°
2026-04-25 14:58 33.87547 34.06458 12503 ft 293 kts 141°
2026-04-25 14:58 33.86044 34.08120 12306 ft 294 kts 140°
2026-04-25 14:58 33.84513 34.09733 12117 ft 292 kts 144°
2026-04-25 14:59 33.82900 34.11206 11939 ft 290 kts 147°
2026-04-25 14:59 33.81251 34.12595 11795 ft 289 kts 148°
2026-04-25 14:59 33.79607 34.13979 11624 ft 289 kts 148°
2026-04-25 14:59 33.77972 34.15375 11458 ft 289 kts 147°
2026-04-25 15:00 33.76341 34.16790 11309 ft 288 kts 146°
2026-04-25 15:00 33.74719 34.18213 11148 ft 288 kts 146°
2026-04-25 15:00 33.73118 34.19615 10986 ft 288 kts 146°
2026-04-25 15:00 33.71503 34.21022 10929 ft 284 kts 146°
2026-04-25 15:01 33.69902 34.22413 10880 ft 282 kts 146°
2026-04-25 15:01 33.68313 34.23792 10825 ft 281 kts 146°
2026-04-25 15:01 33.66729 34.25163 10772 ft 280 kts 146°
2026-04-25 15:01 33.65151 34.26530 10716 ft 279 kts 146°
2026-04-25 15:02 33.63579 34.27893 10653 ft 279 kts 146°
2026-04-25 15:02 33.62006 34.29257 10602 ft 279 kts 146°
2026-04-25 15:02 33.60432 34.30622 10543 ft 279 kts 146°
2026-04-25 15:02 33.58861 34.31984 10485 ft 278 kts 146°
2026-04-25 15:03 33.57296 34.33338 10427 ft 278 kts 146°
2026-04-25 15:03 33.55748 34.34675 10363 ft 278 kts 146°
2026-04-25 15:03 33.54155 34.36051 10297 ft 278 kts 146°
2026-04-25 15:03 33.52587 34.37406 10243 ft 276 kts 146°
2026-04-25 15:04 33.51057 34.38723 10168 ft 266 kts 146°
2026-04-25 15:04 33.49587 34.39995 10083 ft 260 kts 146°
2026-04-25 15:04 33.48133 34.41255 9965 ft 256 kts 146°
2026-04-25 15:04 33.46694 34.42498 9845 ft 253 kts 146°
2026-04-25 15:05 33.45270 34.43728 9719 ft 251 kts 146°
2026-04-25 15:05 33.43854 34.44946 9590 ft 250 kts 146°
2026-04-25 15:05 33.42441 34.46162 9461 ft 250 kts 146°
2026-04-25 15:06 33.39622 34.48585 9200 ft 249 kts 146°
2026-04-25 15:06 33.38219 34.49795 9071 ft 248 kts 146°
2026-04-25 15:06 33.36813 34.51003 8942 ft 248 kts 146°
2026-04-25 15:06 33.35411 34.52211 8813 ft 248 kts 146°
2026-04-25 15:07 33.34017 34.53412 8690 ft 256 kts 146°
2026-04-25 15:07 33.32502 34.54726 8606 ft 274 kts 146°
2026-04-25 15:07 33.30940 34.56065 8556 ft 285 kts 146°
2026-04-25 15:07 33.29317 34.57442 8531 ft 286 kts 146°
2026-04-25 15:08 33.27705 34.58817 8496 ft 284 kts 146°
2026-04-25 15:08 33.26110 34.60191 8454 ft 282 kts 145°
2026-04-25 15:08 33.24515 34.61564 8415 ft 281 kts 145°
2026-04-25 15:08 33.22928 34.62927 8370 ft 281 kts 146°
2026-04-25 15:09 33.21340 34.64289 8328 ft 281 kts 146°
2026-04-25 15:09 33.19748 34.65650 8279 ft 281 kts 146°
2026-04-25 15:09 33.16574 34.68362 8217 ft 280 kts 146°
2026-04-25 15:10 33.15005 34.69703 8159 ft 269 kts 146°
2026-04-25 15:10 33.13509 34.70977 7893 ft 262 kts 146°
2026-04-25 15:10 33.10513 34.73538 6978 ft 271 kts 146°
2026-04-25 15:11 33.08977 34.74852 6626 ft 270 kts 146°
2026-04-25 15:11 33.07477 34.76134 6467 ft 262 kts 145°
2026-04-25 15:11 33.06001 34.77397 6268 ft 261 kts 145°
2026-04-25 15:12 33.03026 34.79935 5813 ft 264 kts 146°
2026-04-25 15:12 33.01525 34.81211 5562 ft 265 kts 145°
2026-04-25 15:12 33.00018 34.82488 5309 ft 266 kts 145°
2026-04-25 15:12 32.99957 34.82540 5301 ft 266 kts 145°
2026-04-25 15:13 32.97449 34.84673 4877 ft 267 kts 145°
2026-04-25 15:13 32.94470 34.87204 4180 ft 241 kts 145°
2026-04-25 15:13 32.93185 34.88281 3824 ft 213 kts 145°
2026-04-25 15:14 32.92023 34.89256 3467 ft 197 kts 144°
2026-04-25 15:14 32.90931 34.90183 3111 ft 190 kts 143°
2026-04-25 15:14 32.89876 34.91077 2763 ft 187 kts 143°
2026-04-25 15:14 32.88820 34.91980 2416 ft 186 kts 143°
2026-04-25 15:15 32.87776 34.92887 2068 ft 185 kts 143°
2026-04-25 15:15 32.86744 34.93795 1752 ft 182 kts 144°
2026-04-25 15:15 32.85793 34.94766 1565 ft 186 kts 131°
2026-04-25 15:15 32.85076 34.96049 1398 ft 179 kts 118°
2026-04-25 15:16 32.84508 34.97310 1276 ft 170 kts 117°
2026-04-25 15:16 32.84035 34.98607 1310 ft 169 kts 105°
2026-04-25 15:16 32.83708 35.00940 1281 ft 172 kts 94°
2026-04-25 15:17 32.83562 35.03801 1332 ft 173 kts 103°
2026-04-25 15:17 32.83059 35.04987 1514 ft 155 kts 131°
2026-04-25 15:17 32.82245 35.05829 1474 ft 158 kts 143°
2026-04-25 15:18 32.81347 35.06550 1337 ft 150 kts 150°
2026-04-25 15:18 32.79467 35.07428 942 ft 143 kts 185°
2026-04-25 15:18 32.78627 35.06985 840 ft 129 kts 228°
2026-04-25 15:19 32.78154 35.06120 689 ft 126 kts 263°
2026-04-25 15:19 32.78166 35.05776 653 ft 123 kts 292°
2026-04-25 15:19 32.79294 35.04993 437 ft 115 kts 345°
2026-04-25 15:19 32.80061 35.04779 172 ft 112 kts 340°
2026-04-25 15:20 32.80534 35.04582 27 ft 105 kts 340°
2026-04-25 15:20 32.80962 35.04399 24 ft 44 kts 340°
2026-04-25 15:20 32.81147 35.04319 23 ft 18 kts 339°
2026-04-25 15:20 32.81158 35.04243 24 ft 11 kts 246°
2026-04-25 15:21 32.81132 35.04158 21 ft 8 kts 253°
2026-04-25 15:21 32.81110 35.04090 20 ft 10 kts 239°
2026-04-25 15:21 32.81099 35.04025 19 ft 4 kts 333°
2026-04-25 15:21 32.81115 35.04024 20 ft 2 kts 18°
2026-04-25 15:22 32.81114 35.04042 20 ft 0 kts 133°
2026-04-25 15:22 32.81111 35.04047 19 ft 0 kts 131°